Meteo Giornale » Osservazioni meteo Italia » Milano-Linate

ore: 14:20 - Osservazioni Meteo Milano-Linate
Lat. 45° 26' N Lon. 9° 17' E Alt. 107 metri s.l.m.

foschia Europe/Rome

3 °C

Foschia

Temp. 24 Ore

1 °C

3 °C

Nord

5.5 Km/h

Dew point 3 °C

Umidità 100 %

Visibilità  3 Km

Il sole sorge alle ore 07:43

Il sole tramonta alle ore 16:42

Data e Ora Cielo e Fenomeni T °C DP °C Um. % Pres. hPa Vis. km Vento km/h
Oggi h: 14:20 foschia Foschia 3 3 100 1007 3 N 5.5
Oggi h: 13:50 nebbia Banco di Nebbia 2 2 100 1007 1 N 5.5
Oggi h: 13:20 nebbia Banco di Nebbia 2 2 100 1007 2 N 1.8
Oggi h: 12:50 nebbia Banco di Nebbia 2 2 100 1007 1 N 3.7
Oggi h: 12:20 nebbia Banco di Nebbia 2 2 100 1008 1 N 5.5
Oggi h: 11:50 nebbia Nebbia 2 2 100 1008 0.8 N 1.8
Oggi h: 11:20 nebbia Nebbia 2 2 100 1008 0.6 N 5.5
Oggi h: 10:50 nebbia Nebbia 1 1 100 1009 0.5 N 3.7
Oggi h: 10:20 nebbia Nebbia 1 1 100 1009 0.4 N 3.7
Oggi h: 09:50 nebbia Nebbia 1 1 100 1008 0.3 N 3.7
Oggi h: 09:20 nebbia Nebbia 1 1 100 1008 0.3 N 5.5
Oggi h: 08:50 nebbia Nebbia 1 1 100 1008 0.4 N 5.5
Oggi h: 08:20 nebbia Nebbia 2 2 100 1008 0.8 N 1.8
Oggi h: 07:50 nebbia Banco di Nebbia 2 2 100 1008 2 N 1.8
Oggi h: 07:20 foschia Foschia 2 2 100 1008 3 N 3.7
Oggi h: 06:50 nebbia Banco di Nebbia 2 2 100 1008 2 N 5.5
Oggi h: 06:20 nebbia Banco di Nebbia 2 2 100 1008 2 N 3.7
Oggi h: 05:50 nebbia Banco di Nebbia 2 2 100 1008 2 N 3.7
Oggi h: 04:50 foschia Foschia 2 2 100 1008 2 N 5.5
Oggi h: 04:20 foschia Foschia 2 2 100 1008 2 O 7.4
Oggi h: 03:50 foschia Foschia 2 2 100 1008 2 O/SO 7.4
Oggi h: 03:20 foschia Foschia 2 2 100 1008 4 O 7.4
Oggi h: 02:50 foschia Foschia 2 2 100 1009 5 O/SO 7.4
Oggi h: 02:20 sereno Sereno 2 2 100 1009 10 O 11.1
Oggi h: 01:50 sereno Sereno 2 1 93 1008 10 N 5.5
Oggi h: 01:20 nuvoloso Nuvoloso 2 1 93 1009 10 N 3.7
Oggi h: 00:50 nuvoloso Nuvoloso 2 2 100 1009 10 O/SO 7.4
Oggi h: 00:20 nuvoloso Nuvoloso 2 2 100 1009 10 O/SO 7.4
Ieri h: 23:50 molto_nuvoloso Molto Nuvoloso 3 2 93 1010 10 O/SO 9.3
Ieri h: 23:20 molto_nuvoloso Molto Nuvoloso 2 2 100 1010 10 O 11.1
Ieri h: 22:50 molto_nuvoloso Molto Nuvoloso 3 2 93 1010 10 O/SO 7.4
Ieri h: 22:20 molto_nuvoloso Molto Nuvoloso 2 2 100 1011 10 N 5.5
Ieri h: 21:50 molto_nuvoloso Molto Nuvoloso 2 2 100 1011 10 O/SO 9.3
Ieri h: 21:20 molto_nuvoloso Molto Nuvoloso 3 2 93 1011 10 N 5.5
Ieri h: 20:50 molto_nuvoloso Molto Nuvoloso 3 2 93 1011 10 O 9.3
Ieri h: 20:20 molto_nuvoloso Molto Nuvoloso 2 1 93 1011 10 O/NO 7.4
Ieri h: 19:50 molto_nuvoloso Molto Nuvoloso 2 2 100 1011 8 N 3.7
Ieri h: 19:20 molto_nuvoloso Molto Nuvoloso 2 1 93 1011 8 N 5.5
Ieri h: 18:50 molto_nuvoloso Molto Nuvoloso 2 1 93 1011 8 N 5.5
Ieri h: 18:20 molto_nuvoloso Molto Nuvoloso 1 1 100 1011 8 N 1.8
Ieri h: 17:50 molto_nuvoloso Molto Nuvoloso 1 1 100 1011 8 N 3.7
Ieri h: 17:20 molto_nuvoloso Molto Nuvoloso 1 1 100 1011 7 N 5.5
Ieri h: 16:50 molto_nuvoloso Molto Nuvoloso 1 1 100 1012 6 N 5.5
Ieri h: 16:20 coperto_pioggia Pioggia Debole 1 1 100 1012 5 N 3.7
Ieri h: 15:50 coperto_pioggia Pioviggine Leggera 1 1 100 1011 4 N 5.5
Ieri h: 15:20 coperto_neve Neve Debole 1 1 100 1011 3 N 5.5
Ieri h: 14:50 coperto_neve Neve Debole Foschia 1 1 100 1011 2 N 5.5